Change the Weather History Date:

Saturday, January 19, 2013

  Actual Average (KRPD) Record (KRPD)
Temperature  
Mean Temperature 18 °F -  
Max Temperature 32 °F 19 °F 29 °F (2015)
Min Temperature 3 °F 3 °F 22 °F (2015)
Degree Days  
Heating Degree Days 48    
Moisture  
Dew Point 14 °F    
Average Humidity 80    
Maximum Humidity 100    
Minimum Humidity 59    
Precipitation  
Precipitation 0.00 in - - ()
Sea Level Pressure  
Sea Level Pressure 29.76 in    
Wind  
Wind Speed 10 mph (West)    
Max Wind Speed 36 mph    
Max Gust Speed 46 mph    
Visibility 7 miles    
Events Snow    
Averages and records for this station are not official NWS values.
T = Trace of Precipitation, MM = Missing Value Source: NWS Daily Summary

Daily Weather History Graph

Daily Weather History Graph

Search for Another Location

Airport or City:

Trip Planner

Search our weather history database for the weather conditions in past years. The results will help you decide how hot, cold, wet, or windy it might be!

Date:

Astronomy

Jan. 19, 2013 Rise Set
Actual Time 7:41 AM CST 4:56 PM CST
Civil Twilight 7:08 AM CST 5:29 PM CST
Nautical Twilight 6:32 AM CST 6:05 PM CST
Astronomical Twilight 5:56 AM CST 6:41 PM CST
Moon 11:26 AM CST (1/19) 1:11 AM CST (1/19)
Length of Visible Light 10h 20m
Length of Day
9h 15m
First Quarter, 57% of the Moon is Illuminated
Jan 19
First Quarter
Jan 26
Full
Feb 3
Last Quarter
Feb 10
New
Feb 17
First Quarter

Hourly Weather History & Observations

Time (CST) Temp. Windchill Dew Point Humidity Pressure Visibility Wind Dir Wind Speed Gust Speed Precip Events Conditions
12:15 AM 21.2 °F - 21.2 °F 100% 29.75 in 5.0 mi Calm Calm - N/A   Mostly Cloudy
12:35 AM 21.2 °F - 19.4 °F 93% 29.76 in 5.0 mi Calm Calm - N/A   Scattered Clouds
12:55 AM 21.2 °F - 19.4 °F 93% 29.75 in 5.0 mi Calm Calm - N/A   Clear
1:15 AM 21.2 °F - 21.2 °F 100% 29.76 in 5.0 mi Calm Calm - N/A   Clear
1:35 AM 21.2 °F - 21.2 °F 100% 29.75 in 5.0 mi Calm Calm - N/A   Scattered Clouds
1:55 AM 19.4 °F 14.3 °F 19.4 °F 100% 29.74 in 5.0 mi NE 3.5 mph - N/A   Mostly Cloudy
2:15 AM 19.4 °F 14.3 °F 17.6 °F 93% 29.75 in 5.0 mi South 3.5 mph - N/A   Mostly Cloudy
2:35 AM 19.4 °F - 17.6 °F 93% 29.74 in 5.0 mi Calm Calm - N/A   Scattered Clouds
2:55 AM 21.2 °F - 19.4 °F 93% 29.73 in 5.0 mi Calm Calm - N/A   Mostly Cloudy
3:15 AM 21.2 °F - 19.4 °F 93% 29.72 in 5.0 mi Calm Calm - N/A   Mostly Cloudy
3:35 AM 21.2 °F - 21.2 °F 100% 29.70 in 5.0 mi Calm Calm - N/A   Overcast
3:55 AM 23.0 °F 17.0 °F 21.2 °F 93% 29.70 in 5.0 mi SE 4.6 mph - N/A   Overcast
4:15 AM 24.8 °F 19.1 °F 23.0 °F 93% 29.69 in 5.0 mi SE 4.6 mph - N/A   Overcast
4:35 AM 24.8 °F 17.9 °F 23.0 °F 93% 29.67 in 5.0 mi SSE 5.8 mph - N/A   Overcast
4:55 AM 26.6 °F 21.2 °F 23.0 °F 86% 29.67 in 7.0 mi SSE 4.6 mph - N/A   Scattered Clouds
5:15 AM 24.8 °F 20.5 °F 23.0 °F 93% 29.69 in 7.0 mi SSW 3.5 mph - N/A   Clear
5:35 AM 23.0 °F 17.0 °F 23.0 °F 100% 29.68 in 5.0 mi South 4.6 mph - N/A   Clear
5:55 AM 24.8 °F 19.1 °F 23.0 °F 93% 29.69 in 7.0 mi SSW 4.6 mph - N/A   Clear
7:15 AM 26.6 °F 22.6 °F 24.8 °F 93% 29.64 in 7.0 mi SSW 3.5 mph - N/A   Clear
7:55 AM 26.6 °F - 23.0 °F 86% 29.66 in 4.0 mi Calm Calm - N/A   Scattered Clouds
8:15 AM 24.8 °F - 23.0 °F 93% 29.65 in 4.0 mi Calm Calm - N/A   Clear
8:35 AM 26.6 °F - 24.8 °F 93% 29.65 in 3.0 mi Calm Calm - N/A   Clear
9:35 AM 28.4 °F 22.2 °F 26.6 °F 93% 29.65 in 5.0 mi SW 5.8 mph - N/A   Mostly Cloudy
9:55 AM 30.2 °F 21.9 °F 28.4 °F 93% 29.65 in 7.0 mi SW 9.2 mph - N/A   Overcast
10:15 AM 30.2 °F 23.4 °F 28.4 °F 93% 29.65 in 10.0 mi SW 6.9 mph - N/A   Mostly Cloudy
10:35 AM 32.0 °F 24.2 °F 28.4 °F 87% 29.64 in 10.0 mi WSW 9.2 mph - N/A   Scattered Clouds
11:15 AM 32.0 °F 20.5 °F 28.4 °F 87% 29.65 in 10.0 mi West 18.4 mph - N/A   Overcast
11:35 AM 32.0 °F 20.1 °F 28.4 °F 87% 29.64 in 10.0 mi WNW 19.6 mph 27.6 mph N/A   Mostly Cloudy
11:55 AM 32.0 °F 20.8 °F 28.4 °F 87% 29.63 in 10.0 mi WNW 17.3 mph 24.2 mph N/A   Mostly Cloudy
12:15 PM 32.0 °F 20.5 °F 28.4 °F 87% 29.63 in 10.0 mi West 18.4 mph - N/A   Overcast
12:35 PM 32.0 °F 20.5 °F 28.4 °F 87% 29.64 in 10.0 mi WNW 18.4 mph 28.8 mph N/A   Overcast
12:55 PM 32.0 °F 20.5 °F 26.6 °F 80% 29.64 in 10.0 mi WNW 18.4 mph 27.6 mph N/A   Overcast
1:15 PM 32.0 °F 20.1 °F 26.6 °F 80% 29.63 in 10.0 mi West 19.6 mph 26.5 mph N/A   Overcast
1:35 PM 32.0 °F 20.8 °F 26.6 °F 80% 29.63 in 10.0 mi West 17.3 mph 25.3 mph N/A   Overcast
1:55 PM 32.0 °F 21.2 °F 26.6 °F 80% 29.63 in 10.0 mi West 16.1 mph 24.2 mph N/A   Overcast
2:15 PM 32.0 °F 20.5 °F 28.4 °F 87% 29.62 in 5.0 mi West 18.4 mph 25.3 mph N/A Snow Light Snow
2:35 PM 32.0 °F 20.8 °F 28.4 °F 87% 29.61 in 5.0 mi West 17.3 mph - N/A Snow Light Snow
2:55 PM 32.0 °F 17.9 °F 26.6 °F 80% 29.61 in 5.0 mi West 28.8 mph 40.3 mph N/A   Haze
3:15 PM 30.2 °F 14.7 °F 17.6 °F 60% 29.62 in 1.8 mi West 32.2 mph 43.7 mph N/A Snow Light Snow
3:35 PM 30.2 °F 14.7 °F 17.6 °F 60% 29.63 in 5.0 mi West 32.2 mph 39.1 mph N/A   Haze
3:55 PM 26.6 °F 9.1 °F 14.0 °F 59% 29.65 in 4.0 mi WNW 35.7 mph 41.4 mph N/A   Haze
4:15 PM 23.0 °F 5.1 °F 12.2 °F 63% 29.67 in 4.0 mi WNW 31.1 mph 41.4 mph N/A   Haze
4:35 PM 21.2 °F 1.9 °F 12.2 °F 68% 29.70 in 3.0 mi WNW 34.5 mph 46.0 mph N/A Snow Light Snow
4:55 PM 17.6 °F 0.1 °F 6.8 °F 63% 29.73 in 1.8 mi WNW 23.0 mph 46.0 mph N/A Snow Light Snow
5:15 PM 14.0 °F -8.0 °F 5.0 °F 67% 29.76 in 1.5 mi WNW 34.5 mph 44.9 mph N/A Snow Light Snow
5:35 PM 12.2 °F -8.9 °F 3.2 °F 67% 29.79 in 7.0 mi WNW 28.8 mph 42.6 mph N/A   Overcast
5:55 PM 10.4 °F -12.0 °F 1.4 °F 67% 29.82 in 4.0 mi WNW 31.1 mph 42.6 mph N/A   Haze
6:15 PM 10.4 °F -10.7 °F 1.4 °F 67% 29.84 in 7.0 mi WNW 26.5 mph 39.1 mph N/A   Overcast
6:35 PM 8.6 °F -12.7 °F 1.4 °F 73% 29.86 in 7.0 mi NW 25.3 mph 32.2 mph N/A   Overcast
6:55 PM 8.6 °F -12.7 °F 1.4 °F 73% 29.87 in 5.0 mi WNW 25.3 mph 34.5 mph N/A   Haze
7:15 PM 6.8 °F -14.7 °F -4.0 °F 61% 29.89 in 10.0 mi NW 24.2 mph 32.2 mph N/A   Scattered Clouds
7:35 PM 5.0 °F -18.3 °F -5.8 °F 61% 29.91 in 10.0 mi NW 27.6 mph 33.4 mph N/A   Scattered Clouds
7:55 PM 5.0 °F -15.2 °F -5.8 °F 61% 29.93 in 10.0 mi NW 19.6 mph 34.5 mph N/A   Scattered Clouds
8:15 PM 5.0 °F -16.2 °F -5.8 °F 61% 29.94 in 10.0 mi WNW 21.9 mph 28.8 mph N/A   Mostly Cloudy
8:35 PM 5.0 °F -15.7 °F -5.8 °F 61% 29.96 in 7.0 mi NW 20.7 mph 32.2 mph N/A   Mostly Cloudy
8:55 PM 5.0 °F -16.2 °F -5.8 °F 61% 29.97 in 10.0 mi NW 21.9 mph 33.4 mph N/A   Overcast
9:15 PM 5.0 °F -15.2 °F -5.8 °F 61% 29.99 in 10.0 mi NW 19.6 mph 27.6 mph N/A   Overcast
9:35 PM 3.2 °F -17.6 °F -4.0 °F 72% 30.00 in 10.0 mi NW 19.6 mph 27.6 mph N/A   Mostly Cloudy
9:55 PM 3.2 °F -15.9 °F -4.0 °F 72% 30.01 in 10.0 mi NW 16.1 mph 27.6 mph N/A   Scattered Clouds
10:15 PM 3.2 °F -16.5 °F -4.0 °F 72% 30.03 in 10.0 mi NW 17.3 mph 26.5 mph N/A   Mostly Cloudy
10:35 PM 3.2 °F -15.9 °F -4.0 °F 72% 30.04 in 10.0 mi NW 16.1 mph 25.3 mph N/A   Mostly Cloudy
10:55 PM 3.2 °F -17.1 °F -4.0 °F 72% 30.05 in 10.0 mi NW 18.4 mph 27.6 mph N/A   Scattered Clouds
11:15 PM 3.2 °F -17.1 °F -5.8 °F 66% 30.06 in 10.0 mi NW 18.4 mph 28.8 mph N/A   Scattered Clouds
11:35 PM 3.2 °F -15.3 °F -5.8 °F 66% 30.07 in 10.0 mi NW 15.0 mph 26.5 mph N/A   Clear
11:55 PM 3.2 °F -16.5 °F -5.8 °F 66% 30.06 in 10.0 mi NW 17.3 mph 25.3 mph N/A   Clear